Weather History for PALH - December, 2012

Change the Weather History Date:

Friday, December 28, 2012

  Actual Average Record
Temperature  
Mean Temperature 24 °F -  
Max Temperature 28 °F 20 °F 33 °F (1999)
Min Temperature 21 °F 8 °F -4 °F (1996)
Degree Days  
Heating Degree Days 40    
Moisture  
Dew Point 19 °F    
Average Humidity 78    
Maximum Humidity 88    
Minimum Humidity 72    
Precipitation  
Precipitation 0.00 in - - ()
Sea Level Pressure  
Sea Level Pressure 29.54 in    
Wind  
Wind Speed 2 mph (NNW)    
Max Wind Speed 10 mph    
Max Gust Speed -    
Visibility 10 miles    
Events      
Averages and records for this station are not official NWS values.
T = Trace of Precipitation, MM = Missing Value Source: NWS Daily Summary

Daily Weather History Graph

Daily Weather History Graph

Search for Another Location

Airport or City:

Trip Planner

Search our weather history database for the weather conditions in past years. The results will help you decide how hot, cold, wet, or windy it might be!

Date:

Astronomy

Dec. 28, 2012 Rise Set
Actual Time 10:15 AM AKST 3:48 PM AKST
Civil Twilight 9:13 AM AKST 4:50 PM AKST
Nautical Twilight 8:14 AM AKST 5:49 PM AKST
Astronomical Twilight 7:20 AM AKST 6:43 PM AKST
Moon 4:59 PM AKST (12/28) 9:53 AM AKST (12/28)
Length of Visible Light 7h 36m
Length of Day
5h 33m
Full, 100% of the Moon is Illuminated
Dec 28
Full
Jan 4
Last Quarter
Jan 11
New
Jan 18
First Quarter
Jan 26
Full

Hourly Weather History & Observations

Time (AKST) Temp. Windchill Dew Point Humidity Pressure Visibility Wind Dir Wind Speed Gust Speed Precip Events Conditions
12:53 AM 25.0 °F - 18.0 °F 75% 29.46 in 10.0 mi Calm Calm - N/A   Mostly Cloudy
1:53 AM 24.1 °F - 19.0 °F 81% 29.47 in 10.0 mi Calm Calm - N/A   Mostly Cloudy
3:53 AM 24.1 °F - 19.0 °F 81% 29.49 in 10.0 mi Calm Calm - N/A   Mostly Cloudy
4:53 AM 21.9 °F 17.2 °F 18.0 °F 85% 29.49 in 10.0 mi NNW 3.5 mph - N/A   Mostly Cloudy
5:53 AM 21.0 °F - 18.0 °F 88% 29.50 in 10.0 mi Calm Calm - N/A   Mostly Cloudy
6:53 AM 21.9 °F 17.2 °F 17.1 °F 82% 29.51 in 10.0 mi NE 3.5 mph - N/A   Mostly Cloudy
7:53 AM 24.1 °F - 19.0 °F 81% 29.53 in 10.0 mi Calm Calm - N/A   Overcast
8:53 AM 24.1 °F - 19.0 °F 81% 29.54 in 10.0 mi Calm Calm - N/A   Overcast
9:53 AM 25.0 °F 18.1 °F 19.9 °F 81% 29.55 in 10.0 mi NNE 5.8 mph - N/A   Overcast
10:53 AM 25.0 °F 20.7 °F 19.9 °F 81% 29.56 in 10.0 mi North 3.5 mph - N/A   Overcast
11:53 AM 26.1 °F 18.4 °F 19.0 °F 75% 29.58 in 10.0 mi NNE 6.9 mph - N/A   Overcast
12:53 PM 27.0 °F 23.0 °F 19.0 °F 72% 29.59 in 10.0 mi North 3.5 mph - N/A   Overcast
1:53 PM 27.0 °F 23.0 °F 19.0 °F 72% 29.59 in 10.0 mi North 3.5 mph - N/A   Scattered Clouds
2:53 PM 27.0 °F - 19.9 °F 75% 29.59 in 10.0 mi Calm Calm - N/A   Overcast
3:53 PM 26.1 °F 21.9 °F 19.0 °F 75% 29.60 in 10.0 mi NNW 3.5 mph - N/A   Overcast
4:53 PM 26.1 °F 19.4 °F 19.0 °F 75% 29.60 in 10.0 mi NW 5.8 mph - N/A   Scattered Clouds
5:53 PM 27.0 °F 23.0 °F 19.9 °F 75% 29.60 in 10.0 mi Variable 3.5 mph - N/A   Scattered Clouds
7:53 PM 28.0 °F 21.7 °F 19.9 °F 72% 29.56 in 10.0 mi NNE 5.8 mph - N/A   Scattered Clouds
8:53 PM 27.0 °F 20.5 °F 19.0 °F 72% 29.55 in 10.0 mi WNW 5.8 mph - N/A   Clear
9:53 PM 27.0 °F 17.3 °F 19.9 °F 75% 29.53 in 10.0 mi WNW 10.4 mph - N/A   Clear
10:53 PM 27.0 °F 18.7 °F 21.0 °F 78% 29.52 in 10.0 mi WNW 8.1 mph - N/A   Clear
11:53 PM 27.0 °F 23.0 °F 21.0 °F 78% 29.49 in 10.0 mi Variable 3.5 mph - N/A   Clear